Location: Emblem
(62.4273°N, 6.4710°E)
Time: 06:43:14
(UTC+02:00)

Transit 2A - Pass Details

Date: 11 March 2024
Orbit: 596 x 956 km, 66.7° (Epoch: 24 April)

Event Time Altitude Azimuth Distance (km) Brightness Sun altitude
Rises 00:40:48 0° 306° (NW) 2,974 9.5 -31.2°
Reaches altitude 10° 00:43:05 10° 300° (WNW) 2,104 8.6 -31.2°
Enters shadow 00:44:13 17° 294° (WNW) 1,698 8.0 -31.2°
